| time (UTC) | temp F | wind direction | speed knots | gust knots | rain 1hr in | rain 24hr in | rain mn in | humidity % | barometer mb |
| 20260831183449 | 91 | 204 | 2.6 | 2.6 | 0.00 | 0.00 | 0.00 | 48 | 1011.0 |
| 20260831182949 | 91 | 41 | 2.6 | 2.6 | 0.00 | 0.00 | 0.00 | 47 | 1011.1 |
| 20260831182444 | 91 | 143 | 0.0 | 0.0 | 0.00 | 0.00 | 0.00 | 50 | 1011.3 |
| 20260831181940 | 92 | 185 | 0.0 | 0.0 | 0.00 | 0.00 | 0.00 | 53 | 1011.0 |
| 20260831181435 | 91 | 168 | 0.9 | 1.7 | 0.00 | 0.00 | 0.00 | 54 | 1011.0 |
| 20260831180929 | 91 | 174 | 0.9 | 1.7 | 0.00 | 0.00 | 0.00 | 51 | 1011.1 |
| 20260831180424 | 90 | 171 | 0.0 | 0.0 | 0.00 | 0.00 | 0.00 | 56 | 1011.1 |
| 20260831175923 | 91 | 191 | 1.7 | 2.6 | 0.00 | 0.00 | 0.00 | 55 | 1011.2 |
| 20260831175420 | 90 | 174 | 2.6 | 2.6 | 0.00 | 0.00 | 0.00 | 55 | 1011.1 |
| 20260831174915 | 89 | 229 | 1.7 | 1.7 | 0.00 | 0.00 | 0.00 | 56 | 1011.2 |
| 20260831174410 | 89 | 227 | 1.7 | 4.3 | 0.00 | 0.00 | 0.00 | 60 | 1011.2 |
| 20260831173909 | 88 | 275 | 0.9 | 2.6 | 0.00 | 0.00 | 0.00 | 62 | 1011.3 |
| 20260831173409 | 89 | 31 | 2.6 | 2.6 | 0.00 | 0.00 | 0.00 | 59 | 1011.4 |
| 20260831172905 | 88 | 179 | 1.7 | 1.7 | 0.00 | 0.00 | 0.00 | 64 | 1011.2 |
| 20260831172400 | 87 | 106 | 1.7 | 2.6 | 0.00 | 0.00 | 0.00 | 67 | 1011.4 |
| 20260831171900 | 87 | 192 | 0.9 | 1.7 | 0.00 | 0.00 | 0.00 | 67 | 1011.3 |
| 20260831171356 | 86 | 186 | 2.6 | 4.3 | 0.00 | 0.00 | 0.00 | 69 | 1011.5 |
| 20260831170853 | 86 | 116 | 1.7 | 2.6 | 0.00 | 0.00 | 0.00 | 69 | 1011.4 |
| 20260831170348 | 86 | 157 | 1.7 | 1.7 | 0.00 | 0.00 | 0.00 | 69 | 1011.4 |
| 20260831165845 | 86 | 182 | 1.7 | 1.7 | 0.00 | 0.00 | 0.00 | 69 | 1011.5 |
| 20260831165341 | 87 | 174 | 2.6 | 4.3 | 0.00 | 0.00 | 0.00 | 68 | 1011.5 |
| 20260831164837 | 86 | 282 | 1.7 | 2.6 | 0.00 | 0.00 | 0.00 | 68 | 1011.4 |
| 20260831164333 | 86 | 137 | 0.9 | 1.7 | 0.00 | 0.00 | 0.00 | 70 | 1011.4 |
| 20260831163828 | 86 | 48 | 3.5 | 6.1 | 0.00 | 0.00 | 0.00 | 69 | 1011.3 |
| 20260831163324 | 86 | 106 | 1.7 | 1.7 | 0.00 | 0.00 | 0.00 | 69 | 1011.2 |
| 20260831162822 | 85 | 166 | 0.9 | 1.7 | 0.00 | 0.00 | 0.00 | 71 | 1011.0 |
| 20260831162318 | 85 | 155 | 0.0 | 0.0 | 0.00 | 0.00 | 0.00 | 71 | 1010.9 |
| 20260831161816 | 85 | 149 | 0.0 | 1.7 | 0.00 | 0.00 | 0.00 | 71 | 1011.0 |
| 20260831161313 | 85 | 342 | 3.5 | 6.1 | 0.00 | 0.00 | 0.00 | 71 | 1011.1 |
| 20260831160813 | 84 | 71 | 1.7 | 2.6 | 0.00 | 0.00 | 0.00 | 71 | 1011.0 |
| 20260831160308 | 84 | 147 | 1.7 | 2.6 | 0.00 | 0.00 | 0.00 | 72 | 1010.9 |
| 20260831155808 | 84 | 23 | 0.9 | 1.7 | 0.00 | 0.00 | 0.00 | 72 | 1011.0 |
| 20260831155306 | 84 | 229 | 0.9 | 2.6 | 0.00 | 0.00 | 0.00 | 73 | 1011.2 |
| 20260831154759 | 85 | 209 | 0.9 | 1.7 | 0.00 | 0.00 | 0.00 | 72 | 1011.2 |
| 20260831154255 | 85 | 161 | 0.0 | 0.0 | 0.00 | 0.00 | 0.00 | 74 | 1011.0 |
| 20260831153753 | 85 | 163 | 1.7 | 1.7 | 0.00 | 0.00 | 0.00 | 72 | 1011.0 |
| 20260831153249 | 85 | 188 | 1.7 | 1.7 | 0.00 | 0.00 | 0.00 | 72 | 1010.9 |
| 20260831152745 | 85 | 238 | 0.0 | 1.7 | 0.00 | 0.00 | 0.00 | 74 | 1010.9 |
| 20260831152241 | 84 | 172 | 0.0 | 0.0 | 0.00 | 0.00 | 0.00 | 76 | 1010.8 |
| 20260831151741 | 83 | 149 | 0.0 | 0.0 | 0.00 | 0.00 | 0.00 | 76 | 1010.9 |
| 20260831151241 | 83 | 90 | 2.6 | 4.3 | 0.00 | 0.00 | 0.00 | 77 | 1010.9 |
| 20260831150736 | 82 | 181 | 1.7 | 1.7 | 0.00 | 0.00 | 0.00 | 77 | 1010.8 |
| 20260831150231 | 82 | 172 | 0.9 | 1.7 | 0.00 | 0.00 | 0.00 | 79 | 1010.5 |
| 20260831145730 | 82 | 289 | 1.7 | 2.6 | 0.00 | 0.00 | 0.00 | 79 | 1010.4 |
| 20260831145227 | 81 | 168 | 0.0 | 0.0 | 0.00 | 0.00 | 0.00 | 80 | 1010.2 |
| 20260831144722 | 81 | 212 | 2.6 | 2.6 | 0.00 | 0.00 | 0.00 | 79 | 1010.0 |
| 20260831144218 | 80 | 169 | 0.0 | 1.7 | 0.00 | 0.00 | 0.00 | 82 | 1010.1 |
| 20260831143717 | 79 | 165 | 0.0 | 0.0 | 0.00 | 0.00 | 0.00 | 84 | 1010.1 |
| 20260831143213 | 79 | 156 | 0.9 | 1.7 | 0.00 | 0.00 | 0.00 | 83 | 1010.0 |
| 20260831142709 | 79 | 338 | 1.7 | 2.6 | 0.00 | 0.00 | 0.00 | 84 | 1010.1 |
| 20260831142204 | 79 | 205 | 0.0 | 1.7 | 0.00 | 0.00 | 0.00 | 84 | 1010.1 |
| 20260831141703 | 78 | 174 | 0.0 | 1.7 | 0.00 | 0.00 | 0.00 | 85 | 1009.9 |
| 20260831141158 | 78 | 324 | 2.6 | 4.3 | 0.00 | 0.00 | 0.00 | 85 | 1010.0 |
| 20260831140658 | 77 | 6 | 1.7 | 1.7 | 0.00 | 0.00 | 0.00 | 87 | 1009.8 |
| 20260831140153 | 77 | 205 | 1.7 | 2.6 | 0.00 | 0.00 | 0.00 | 88 | 1009.7 |
| 20260831135650 | 76 | 173 | 0.9 | 1.7 | 0.00 | 0.00 | 0.00 | 90 | 1009.8 |
| 20260831135147 | 75 | 148 | 0.0 | 0.0 | 0.00 | 0.00 | 0.00 | 92 | 1009.8 |
| 20260831134642 | 75 | 190 | 0.0 | 0.0 | 0.00 | 0.00 | 0.00 | 94 | 1009.7 |
| 20260831134137 | 74 | 145 | 0.9 | 1.7 | 0.00 | 0.00 | 0.00 | 95 | 1009.8 |
| 20260831133636 | 74 | 172 | 0.0 | 0.0 | 0.00 | 0.00 | 0.00 | 96 | 1009.6 |
| 20260831133132 | 73 | 172 | 0.0 | 0.0 | 0.00 | 0.00 | 0.00 | 97 | 1009.5 |
| 20260831132628 | 73 | 200 | 0.9 | 1.7 | 0.00 | 0.00 | 0.00 | 97 | 1009.6 |
| 20260831132126 | 72 | 228 | 0.9 | 1.7 | 0.00 | 0.00 | 0.00 | 97 | 1009.6 |
| 20260831131621 | 72 | 167 | 0.0 | 0.0 | 0.00 | 0.00 | 0.00 | 98 | 1009.4 |
| 20260831131118 | 72 | 172 | 0.0 | 1.7 | 0.00 | 0.00 | 0.00 | 98 | 1009.4 |
| 20260831130613 | 72 | 171 | 0.0 | 0.0 | 0.00 | 0.00 | 0.00 | 98 | 1009.3 |
| 20260831130109 | 72 | 166 | 0.0 | 0.0 | 0.00 | 0.00 | 0.00 | 98 | 1009.2 |
| 20260831125607 | 72 | 167 | 0.0 | 0.0 | 0.00 | 0.00 | 0.00 | 98 | 1009.3 |
| 20260831125102 | 72 | 172 | 0.0 | 0.0 | 0.00 | 0.00 | 0.00 | 98 | 1009.3 |
| 20260831124558 | 72 | 177 | 0.0 | 0.0 | 0.00 | 0.00 | 0.00 | 98 | 1009.3 |
| 20260831124054 | 71 | 180 | 0.0 | 0.0 | 0.00 | 0.00 | 0.00 | 98 | 1008.8 |
| 20260831123553 | 71 | 179 | 0.0 | 0.0 | 0.00 | 0.00 | 0.00 | 98 | 1008.9 |
| 20260831123048 | 71 | 161 | 0.0 | 0.0 | 0.00 | 0.00 | 0.00 | 98 | 1009.2 |
| 20260831122543 | 71 | 165 | 0.0 | 0.0 | 0.00 | 0.00 | 0.00 | 98 | 1008.8 |
| 20260831122038 | 70 | 163 | 0.0 | 0.0 | 0.00 | 0.00 | 0.00 | 98 | 1009.0 |
| 20260831121532 | 70 | 167 | 0.0 | 0.0 | 0.00 | 0.00 | 0.00 | 98 | 1008.9 |
| 20260831121029 | 70 | 167 | 0.0 | 0.0 | 0.00 | 0.00 | 0.00 | 97 | 1008.9 |
| 20260831120527 | 69 | 164 | 0.0 | 0.0 | 0.00 | 0.00 | 0.00 | 97 | 1008.8 |
| 20260831120023 | 69 | 165 | 0.0 | 0.0 | 0.00 | 0.00 | 0.00 | 97 | 1008.8 |
| 20260831115519 | 69 | 165 | 0.0 | 0.0 | 0.00 | 0.00 | 0.00 | 97 | 1008.8 |
| 20260831115014 | 69 | 165 | 0.0 | 0.0 | 0.00 | 0.00 | 0.00 | 97 | 1008.6 |
| 20260831114513 | 69 | 160 | 0.0 | 0.0 | 0.00 | 0.00 | 0.00 | 97 | 1008.4 |
| 20260831114008 | 69 | 158 | 0.0 | 0.0 | 0.00 | 0.00 | 0.00 | 97 | 1008.5 |
| 20260831113508 | 69 | 161 | 0.0 | 0.0 | 0.00 | 0.00 | 0.00 | 97 | 1008.4 |
| 20260831113004 | 69 | 164 | 0.0 | 0.0 | 0.00 | 0.00 | 0.00 | 97 | 1008.6 |
| 20260831112503 | 68 | 164 | 0.0 | 0.0 | 0.00 | 0.00 | 0.00 | 97 | 1008.2 |
| 20260831111958 | 68 | 164 | 0.0 | 0.0 | 0.00 | 0.00 | 0.00 | 97 | 1008.1 |
| 20260831111454 | 68 | 164 | 0.0 | 0.0 | 0.00 | 0.00 | 0.00 | 97 | 1008.2 |
| 20260831110949 | 69 | 164 | 0.0 | 0.0 | 0.00 | 0.00 | 0.00 | 97 | 1008.1 |
| 20260831110444 | 69 | 164 | 0.0 | 0.0 | 0.00 | 0.00 | 0.00 | 97 | 1008.1 |
| 20260831105943 | 69 | 162 | 0.0 | 0.0 | 0.00 | 0.00 | 0.00 | 97 | 1008.0 |
| 20260831105439 | 69 | 162 | 0.0 | 0.0 | 0.00 | 0.00 | 0.00 | 97 | 1007.8 |
| 20260831104939 | 69 | 160 | 0.0 | 0.0 | 0.00 | 0.00 | 0.00 | 97 | 1007.7 |
| 20260831104435 | 69 | 160 | 0.0 | 0.0 | 0.00 | 0.00 | 0.00 | 97 | 1007.7 |
| 20260831103931 | 69 | 160 | 0.0 | 0.0 | 0.00 | 0.00 | 0.00 | 97 | 1008.1 |
| 20260831103426 | 69 | 164 | 0.0 | 0.0 | 0.00 | 0.00 | 0.00 | 97 | 1007.8 |
| 20260831102922 | 69 | 160 | 0.0 | 0.0 | 0.00 | 0.00 | 0.00 | 97 | 1008.0 |
| 20260831102421 | 69 | 160 | 0.0 | 0.0 | 0.00 | 0.00 | 0.00 | 96 | 1008.0 |
| 20260831101917 | 69 | 160 | 0.0 | 0.0 | 0.00 | 0.00 | 0.00 | 97 | 1008.0 |
| 20260831101412 | 69 | 160 | 0.0 | 0.0 | 0.00 | 0.00 | 0.00 | 97 | 1007.8 |
| 20260831100908 | 69 | 160 | 0.0 | 0.0 | 0.00 | 0.00 | 0.00 | 96 | 1007.9 |
| 20260831100404 | 69 | 160 | 0.0 | 0.0 | 0.00 | 0.00 | 0.00 | 96 | 1007.8 |
| 20260831095904 | 69 | 160 | 0.0 | 0.0 | 0.00 | 0.00 | 0.00 | 96 | 1007.7 |
| 20260831095403 | 69 | 166 | 0.0 | 0.0 | 0.00 | 0.00 | 0.00 | 96 | 1007.9 |
| 20260831094858 | 69 | 166 | 0.0 | 0.0 | 0.00 | 0.00 | 0.00 | 96 | 1007.6 |
| 20260831094348 | 69 | 165 | 0.0 | 0.0 | 0.00 | 0.00 | 0.00 | 96 | 1007.8 |
| 20260831093844 | 69 | 166 | 0.0 | 0.0 | 0.00 | 0.00 | 0.00 | 96 | 1007.9 |
| 20260831093339 | 69 | 165 | 0.0 | 0.0 | 0.00 | 0.00 | 0.00 | 96 | 1007.7 |
| 20260831092836 | 69 | 166 | 0.0 | 0.0 | 0.00 | 0.00 | 0.00 | 96 | 1007.9 |
| 20260831092331 | 69 | 166 | 0.0 | 0.0 | 0.00 | 0.00 | 0.00 | 96 | 1007.7 |
| 20260831091826 | 69 | 166 | 0.0 | 0.0 | 0.00 | 0.00 | 0.00 | 96 | 1007.8 |
| 20260831091321 | 69 | 165 | 0.0 | 0.0 | 0.00 | 0.00 | 0.00 | 95 | 1007.8 |
| 20260831090816 | 69 | 165 | 0.0 | 0.0 | 0.00 | 0.00 | 0.00 | 95 | 1007.9 |
| 20260831090312 | 70 | 166 | 0.0 | 0.0 | 0.00 | 0.00 | 0.00 | 95 | 1007.9 |
| 20260831085809 | 70 | 166 | 0.0 | 0.0 | 0.00 | 0.00 | 0.00 | 95 | 1007.9 |
| 20260831085306 | 70 | 166 | 0.0 | 0.0 | 0.00 | 0.00 | 0.00 | 95 | 1007.8 |
| 20260831084803 | 70 | 166 | 0.0 | 0.0 | 0.00 | 0.00 | 0.00 | 95 | 1007.7 |
| 20260831084259 | 70 | 166 | 0.0 | 0.0 | 0.00 | 0.00 | 0.00 | 95 | 1007.9 |
| 20260831083755 | 70 | 166 | 0.0 | 0.0 | 0.00 | 0.00 | 0.00 | 95 | 1007.8 |
| 20260831083251 | 70 | 166 | 0.0 | 0.0 | 0.00 | 0.00 | 0.00 | 95 | 1007.7 |
| 20260831082749 | 70 | 160 | 0.0 | 0.0 | 0.00 | 0.00 | 0.00 | 95 | 1007.7 |
| 20260831082244 | 70 | 160 | 0.0 | 0.0 | 0.00 | 0.00 | 0.00 | 94 | 1007.8 |
| 20260831081740 | 71 | 158 | 0.0 | 0.0 | 0.00 | 0.00 | 0.00 | 94 | 1007.7 |
| 20260831081236 | 71 | 167 | 0.0 | 0.0 | 0.00 | 0.00 | 0.00 | 94 | 1007.7 |
| 20260831080732 | 71 | 166 | 0.0 | 0.0 | 0.00 | 0.00 | 0.00 | 94 | 1007.6 |
| 20260831080231 | 71 | 167 | 0.0 | 0.0 | 0.00 | 0.00 | 0.00 | 94 | 1007.6 |
| 20260831075727 | 71 | 168 | 0.0 | 0.0 | 0.00 | 0.00 | 0.00 | 94 | 1007.6 |
| 20260831075223 | 71 | 167 | 0.0 | 0.0 | 0.00 | 0.00 | 0.00 | 93 | 1007.6 |
| 20260831074722 | 71 | 167 | 0.0 | 0.0 | 0.00 | 0.00 | 0.00 | 93 | 1007.7 |
| 20260831074222 | 71 | 163 | 0.0 | 0.0 | 0.00 | 0.00 | 0.00 | 93 | 1007.7 |
| 20260831073718 | 71 | 164 | 0.0 | 0.0 | 0.00 | 0.00 | 0.00 | 93 | 1007.7 |
| 20260831073217 | 71 | 164 | 0.0 | 0.0 | 0.00 | 0.00 | 0.00 | 93 | 1007.5 |
| 20260831072712 | 71 | 164 | 0.0 | 0.0 | 0.00 | 0.00 | 0.00 | 92 | 1007.7 |
| 20260831072208 | 72 | 166 | 0.0 | 0.0 | 0.00 | 0.00 | 0.00 | 92 | 1007.6 |
| 20260831071708 | 72 | 166 | 0.0 | 0.0 | 0.00 | 0.00 | 0.00 | 92 | 1007.8 |
| 20260831071203 | 72 | 165 | 0.0 | 0.0 | 0.00 | 0.00 | 0.00 | 92 | 1007.8 |
| 20260831070702 | 72 | 166 | 0.0 | 0.0 | 0.00 | 0.00 | 0.00 | 91 | 1007.8 |
| 20260831070157 | 72 | 167 | 0.0 | 0.0 | 0.00 | 0.00 | 0.00 | 91 | 1008.0 |
| 20260831065656 | 72 | 162 | 0.0 | 0.0 | 0.00 | 0.00 | 0.00 | 91 | 1007.9 |
| 20260831065155 | 72 | 150 | 0.0 | 0.0 | 0.00 | 0.00 | 0.00 | 91 | 1007.9 |
| 20260831064650 | 72 | 168 | 0.0 | 0.0 | 0.00 | 0.00 | 0.00 | 91 | 1008.2 |
| 20260831064145 | 72 | 162 | 0.0 | 1.7 | 0.00 | 0.00 | 0.00 | 91 | 1008.0 |
| 20260831063641 | 72 | 158 | 0.0 | 0.0 | 0.00 | 0.00 | 0.00 | 91 | 1008.2 |
| 20260831063136 | 72 | 156 | 0.9 | 1.7 | 0.00 | 0.00 | 0.00 | 91 | 1008.3 |
| 20260831062636 | 72 | 159 | 0.0 | 0.0 | 0.00 | 0.00 | 0.00 | 91 | 1008.3 |
| 20260831062136 | 72 | 158 | 0.0 | 0.0 | 0.00 | 0.00 | 0.00 | 90 | 1008.5 |
| 20260831061634 | 72 | 165 | 0.0 | 0.0 | 0.00 | 0.00 | 0.00 | 90 | 1008.4 |
| 20260831061130 | 72 | 170 | 0.0 | 0.0 | 0.00 | 0.00 | 0.00 | 90 | 1008.2 |
| 20260831060626 | 72 | 165 | 0.0 | 0.0 | 0.00 | 0.00 | 0.00 | 90 | 1008.4 |
| 20260831060121 | 73 | 165 | 0.0 | 0.0 | 0.00 | 0.00 | 0.00 | 90 | 1008.6 |
| 20260831055620 | 73 | 164 | 0.0 | 0.0 | 0.00 | 0.00 | 0.00 | 89 | 1008.5 |
| 20260831055116 | 73 | 165 | 0.0 | 0.0 | 0.00 | 0.00 | 0.00 | 89 | 1008.4 |
| 20260831054615 | 73 | 174 | 0.0 | 0.0 | 0.00 | 0.00 | 0.00 | 89 | 1008.5 |
| 20260831054115 | 73 | 166 | 0.0 | 0.0 | 0.00 | 0.00 | 0.00 | 89 | 1008.6 |
| 20260831053614 | 73 | 159 | 0.0 | 0.0 | 0.00 | 0.00 | 0.00 | 89 | 1008.7 |
| 20260831053114 | 73 | 162 | 0.0 | 0.0 | 0.00 | 0.00 | 0.00 | 90 | 1008.7 |
| 20260831052613 | 73 | 172 | 0.0 | 0.0 | 0.00 | 0.00 | 0.00 | 89 | 1008.8 |
| 20260831052112 | 73 | 174 | 0.0 | 1.7 | 0.00 | 0.00 | 0.00 | 89 | 1008.9 |
| 20260831051610 | 73 | 170 | 0.0 | 0.0 | 0.00 | 0.00 | 0.00 | 89 | 1009.0 |
| 20260831051110 | 73 | 171 | 0.0 | 0.0 | 0.00 | 0.00 | 0.00 | 89 | 1009.0 |
| 20260831050609 | 73 | 172 | 0.0 | 0.0 | 0.00 | 0.00 | 0.00 | 88 | 1009.4 |
| 20260831050108 | 73 | 160 | 0.0 | 0.0 | 0.00 | 0.00 | 0.00 | 88 | 1009.3 |
| 20260831045608 | 73 | 172 | 0.0 | 0.0 | 0.00 | 0.00 | 0.00 | 88 | 1009.3 |
| 20260831045103 | 74 | 164 | 0.0 | 0.0 | 0.00 | 0.00 | 0.00 | 87 | 1009.3 |
| 20260831044558 | 74 | 169 | 0.0 | 0.0 | 0.00 | 0.00 | 0.00 | 87 | 1009.4 |
| 20260831044054 | 74 | 171 | 0.0 | 0.0 | 0.00 | 0.00 | 0.00 | 86 | 1009.4 |
| 20260831043549 | 74 | 173 | 0.0 | 0.0 | 0.00 | 0.00 | 0.00 | 86 | 1009.3 |
| 20260831043044 | 74 | 163 | 0.0 | 0.0 | 0.00 | 0.00 | 0.00 | 86 | 1009.4 |
| 20260831042543 | 74 | 157 | 0.0 | 0.0 | 0.00 | 0.00 | 0.00 | 85 | 1009.3 |
| 20260831042039 | 75 | 153 | 0.0 | 0.0 | 0.00 | 0.00 | 0.00 | 85 | 1009.3 |
| 20260831041534 | 75 | 157 | 0.0 | 0.0 | 0.00 | 0.00 | 0.00 | 85 | 1009.4 |
| 20260831041033 | 75 | 170 | 0.0 | 1.7 | 0.00 | 0.00 | 0.00 | 85 | 1009.3 |
| 20260831040528 | 75 | 167 | 0.0 | 0.0 | 0.00 | 0.00 | 0.00 | 85 | 1009.3 |
| 20260831040027 | 75 | 199 | 0.9 | 1.7 | 0.00 | 0.00 | 0.00 | 85 | 1009.3 |
| 20260831035525 | 75 | 172 | 0.0 | 0.0 | 0.00 | 0.00 | 0.00 | 84 | 1009.3 |
| 20260831035020 | 75 | 157 | 0.0 | 0.0 | 0.00 | 0.00 | 0.00 | 84 | 1009.0 |
| 20260831034515 | 75 | 181 | 0.9 | 1.7 | 0.00 | 0.00 | 0.00 | 84 | 1009.0 |
| 20260831034010 | 75 | 168 | 0.9 | 1.7 | 0.00 | 0.00 | 0.00 | 83 | 1009.2 |
| 20260831033506 | 76 | 164 | 0.0 | 1.7 | 0.00 | 0.00 | 0.00 | 82 | 1009.2 |
| 20260831033001 | 76 | 149 | 1.7 | 2.6 | 0.00 | 0.00 | 0.00 | 82 | 1009.5 |
| 20260831032500 | 76 | 160 | 0.9 | 1.7 | 0.00 | 0.00 | 0.00 | 82 | 1009.3 |
| 20260831031956 | 76 | 192 | 2.6 | 2.6 | 0.00 | 0.00 | 0.00 | 82 | 1009.4 |
| 20260831031455 | 76 | 188 | 0.0 | 1.7 | 0.00 | 0.00 | 0.00 | 82 | 1009.3 |
| 20260831030955 | 76 | 180 | 0.0 | 1.7 | 0.00 | 0.00 | 0.00 | 81 | 1009.3 |
| 20260831030454 | 76 | 169 | 0.9 | 1.7 | 0.00 | 0.00 | 0.00 | 81 | 1009.0 |
| 20260831025953 | 76 | 120 | 2.6 | 2.6 | 0.00 | 0.00 | 0.00 | 80 | 1008.9 |
| 20260831025452 | 76 | 159 | 1.7 | 2.6 | 0.00 | 0.00 | 0.00 | 80 | 1008.8 |
| 20260831024948 | 77 | 169 | 0.0 | 1.7 | 0.00 | 0.00 | 0.00 | 80 | 1008.8 |
| 20260831024443 | 77 | 176 | 0.0 | 1.7 | 0.00 | 0.00 | 0.00 | 79 | 1009.0 |
| 20260831023942 | 77 | 97 | 4.3 | 4.3 | 0.00 | 0.00 | 0.00 | 79 | 1009.0 |
| 20260831023440 | 77 | 172 | 0.9 | 1.7 | 0.00 | 0.00 | 0.00 | 78 | 1009.2 |
| 20260831022936 | 77 | 150 | 3.5 | 4.3 | 0.00 | 0.00 | 0.00 | 78 | 1009.0 |
| 20260831022434 | 77 | 169 | 2.6 | 4.3 | 0.00 | 0.00 | 0.00 | 78 | 1008.9 |
| 20260831021930 | 78 | 161 | 0.0 | 0.0 | 0.00 | 0.00 | 0.00 | 77 | 1009.2 |
| 20260831021429 | 78 | 175 | 0.9 | 1.7 | 0.00 | 0.00 | 0.00 | 76 | 1009.0 |
| 20260831020925 | 78 | 184 | 1.7 | 2.6 | 0.00 | 0.00 | 0.00 | 76 | 1009.4 |
| 20260831020425 | 78 | 155 | 1.7 | 2.6 | 0.00 | 0.00 | 0.00 | 75 | 1009.4 |
| 20260831015920 | 78 | 184 | 1.7 | 1.7 | 0.00 | 0.00 | 0.00 | 75 | 1009.2 |
| 20260831015416 | 79 | 198 | 1.7 | 2.6 | 0.00 | 0.00 | 0.00 | 75 | 1009.0 |
| 20260831014911 | 79 | 172 | 0.0 | 1.7 | 0.00 | 0.00 | 0.00 | 74 | 1009.4 |
| 20260831014410 | 79 | 190 | 1.7 | 1.7 | 0.00 | 0.00 | 0.00 | 74 | 1009.3 |
| 20260831013907 | 79 | 151 | 3.5 | 6.1 | 0.00 | 0.00 | 0.00 | 73 | 1009.5 |
| 20260831013402 | 80 | 198 | 1.7 | 2.6 | 0.00 | 0.00 | 0.00 | 72 | 1009.3 |
| 20260831012856 | 80 | 175 | 0.9 | 1.7 | 0.00 | 0.00 | 0.00 | 71 | 1009.0 |
| 20260831012351 | 80 | 169 | 0.9 | 2.6 | 0.00 | 0.00 | 0.00 | 70 | 1009.2 |
| 20260831011851 | 80 | 180 | 0.0 | 1.7 | 0.00 | 0.00 | 0.00 | 69 | 1008.9 |
| 20260831011346 | 81 | 164 | 0.9 | 1.7 | 0.00 | 0.00 | 0.00 | 68 | 1008.8 |
| 20260831010842 | 81 | 209 | 1.7 | 2.6 | 0.00 | 0.00 | 0.00 | 67 | 1008.7 |
| 20260831010341 | 82 | 172 | 0.0 | 0.0 | 0.00 | 0.00 | 0.00 | 67 | 1008.8 |
| 20260831005838 | 82 | 105 | 3.5 | 6.1 | 0.00 | 0.00 | 0.00 | 66 | 1008.6 |
| 20260831005333 | 82 | 63 | 2.6 | 4.3 | 0.00 | 0.00 | 0.00 | 65 | 1008.4 |
| 20260831004827 | 83 | 91 | 1.7 | 1.7 | 0.00 | 0.00 | 0.00 | 65 | 1008.3 |
| 20260831004324 | 83 | 164 | 1.7 | 2.6 | 0.00 | 0.00 | 0.00 | 65 | 1008.5 |
| 20260831003820 | 83 | 183 | 1.7 | 1.7 | 0.00 | 0.00 | 0.00 | 67 | 1008.2 |
| 20260831003316 | 83 | 188 | 1.7 | 2.6 | 0.00 | 0.00 | 0.00 | 68 | 1008.4 |
| 20260831002815 | 83 | 161 | 0.0 | 1.7 | 0.00 | 0.00 | 0.00 | 69 | 1008.2 |
| 20260831002314 | 83 | 169 | 0.0 | 0.0 | 0.00 | 0.00 | 0.00 | 68 | 1008.0 |
| 20260831001810 | 84 | 174 | 1.7 | 1.7 | 0.00 | 0.00 | 0.00 | 68 | 1007.9 |
| 20260831001305 | 84 | 175 | 0.9 | 1.7 | 0.00 | 0.00 | 0.00 | 68 | 1007.7 |
| 20260831000803 | 84 | 169 | 0.0 | 0.0 | 0.00 | 0.00 | 0.00 | 67 | 1008.0 |
| 20260831000303 | 84 | 120 | 0.9 | 1.7 | 0.00 | 0.00 | 0.00 | 67 | 1008.1 |
| 20260830235801 | 85 | 188 | 1.7 | 2.6 | 0.00 | 0.00 | 0.00 | 66 | 1008.1 |
| 20260830235255 | 85 | 157 | 0.9 | 1.7 | 0.00 | 0.00 | 0.00 | 66 | 1008.0 |
| 20260830234751 | 85 | 160 | 1.7 | 2.6 | 0.00 | 0.00 | 0.00 | 66 | 1007.9 |
| 20260830234247 | 85 | 212 | 2.6 | 2.6 | 0.00 | 0.00 | 0.00 | 67 | 1008.0 |
| 20260830233742 | 85 | 169 | 1.7 | 1.7 | 0.00 | 0.00 | 0.00 | 67 | 1008.1 |
| 20260830233238 | 86 | 167 | 0.0 | 1.7 | 0.00 | 0.00 | 0.00 | 67 | 1008.0 |
| 20260830232733 | 86 | 190 | 1.7 | 2.6 | 0.00 | 0.00 | 0.00 | 66 | 1007.9 |
| 20260830232229 | 86 | 172 | 0.9 | 1.7 | 0.00 | 0.00 | 0.00 | 66 | 1007.9 |
| 20260830231725 | 86 | 172 | 1.7 | 1.7 | 0.00 | 0.00 | 0.00 | 67 | 1007.8 |
| 20260830231224 | 85 | 175 | 0.0 | 0.0 | 0.00 | 0.00 | 0.00 | 69 | 1008.0 |
| 20260830230719 | 85 | 181 | 1.7 | 1.7 | 0.00 | 0.00 | 0.00 | 70 | 1008.0 |
| 20260830230214 | 86 | 161 | 0.0 | 0.0 | 0.00 | 0.00 | 0.00 | 70 | 1008.3 |
| 20260830225709 | 86 | 174 | 0.9 | 1.7 | 0.00 | 0.00 | 0.00 | 69 | 1008.2 |
| 20260830225209 | 86 | 141 | 3.5 | 4.3 | 0.00 | 0.00 | 0.00 | 69 | 1007.9 |
| 20260830224708 | 86 | 82 | 1.7 | 4.3 | 0.00 | 0.00 | 0.00 | 69 | 1007.9 |
| 20260830224204 | 86 | 151 | 1.7 | 4.3 | 0.00 | 0.00 | 0.00 | 69 | 1007.8 |
| 20260830223701 | 86 | 167 | 0.9 | 1.7 | 0.00 | 0.00 | 0.00 | 69 | 1007.9 |
| 20260830223155 | 85 | 226 | 1.7 | 2.6 | 0.00 | 0.00 | 0.00 | 69 | 1008.0 |
| 20260830222650 | 86 | 166 | 1.7 | 2.6 | 0.00 | 0.00 | 0.00 | 69 | 1007.9 |
| 20260830222145 | 86 | 173 | 0.0 | 0.0 | 0.00 | 0.00 | 0.00 | 68 | 1007.8 |
| 20260830221641 | 87 | 185 | 1.7 | 2.6 | 0.00 | 0.00 | 0.00 | 67 | 1007.7 |
| 20260830221137 | 87 | 183 | 1.7 | 1.7 | 0.00 | 0.00 | 0.00 | 67 | 1008.2 |
| 20260830220632 | 87 | 37 | 1.7 | 2.6 | 0.00 | 0.00 | 0.00 | 67 | 1008.0 |
| 20260830220131 | 87 | 137 | 0.9 | 1.7 | 0.00 | 0.00 | 0.00 | 67 | 1007.9 |
| 20260830215631 | 86 | 162 | 0.9 | 1.7 | 0.00 | 0.00 | 0.00 | 68 | 1008.1 |
| 20260830215125 | 86 | 98 | 0.9 | 1.7 | 0.00 | 0.00 | 0.00 | 69 | 1008.1 |
| 20260830214620 | 86 | 168 | 0.9 | 2.6 | 0.00 | 0.00 | 0.00 | 68 | 1008.1 |
| 20260830214115 | 86 | 165 | 0.0 | 0.0 | 0.00 | 0.00 | 0.00 | 67 | 1008.1 |
| 20260830213614 | 87 | 167 | 5.2 | 6.1 | 0.00 | 0.00 | 0.00 | 67 | 1007.9 |
| 20260830213110 | 86 | 124 | 0.0 | 1.7 | 0.00 | 0.00 | 0.00 | 67 | 1008.1 |
| 20260830212606 | 86 | 78 | 1.7 | 4.3 | 0.00 | 0.00 | 0.00 | 68 | 1008.2 |
| 20260830212106 | 86 | 104 | 0.0 | 0.0 | 0.00 | 0.00 | 0.00 | 68 | 1008.2 |
| 20260830211601 | 86 | 87 | 1.7 | 1.7 | 0.00 | 0.00 | 0.00 | 68 | 1008.4 |
| 20260830211055 | 86 | 182 | 0.9 | 1.7 | 0.00 | 0.00 | 0.00 | 67 | 1008.5 |
| 20260830210550 | 87 | 175 | 0.0 | 0.0 | 0.00 | 0.00 | 0.00 | 66 | 1008.5 |
| 20260830210044 | 86 | 166 | 1.7 | 2.6 | 0.00 | 0.00 | 0.00 | 68 | 1008.6 |
| 20260830205542 | 86 | 175 | 0.9 | 1.7 | 0.00 | 0.00 | 0.00 | 67 | 1008.4 |
| 20260830205038 | 87 | 182 | 1.7 | 2.6 | 0.00 | 0.00 | 0.00 | 65 | 1008.5 |
| 20260830204537 | 87 | 166 | 0.0 | 0.0 | 0.00 | 0.00 | 0.00 | 65 | 1008.5 |
| 20260830204036 | 87 | 181 | 1.7 | 2.6 | 0.00 | 0.00 | 0.00 | 65 | 1008.6 |
| 20260830203532 | 85 | 167 | 1.7 | 1.7 | 0.00 | 0.00 | 0.00 | 69 | 1008.6 |
| 20260830203027 | 85 | 182 | 2.6 | 4.3 | 0.00 | 0.00 | 0.00 | 67 | 1008.9 |
| 20260830202527 | 86 | 193 | 1.7 | 2.6 | 0.00 | 0.00 | 0.00 | 67 | 1008.6 |
| 20260830202023 | 87 | 153 | 1.7 | 4.3 | 0.00 | 0.00 | 0.00 | 65 | 1008.9 |
| 20260830201522 | 86 | 179 | 0.9 | 1.7 | 0.00 | 0.00 | 0.00 | 66 | 1008.9 |
| 20260830201017 | 86 | 256 | 1.7 | 2.6 | 0.00 | 0.00 | 0.00 | 66 | 1008.7 |
| 20260830200512 | 86 | 106 | 1.7 | 1.7 | 0.00 | 0.00 | 0.00 | 65 | 1008.8 |
| 20260830200011 | 88 | 327 | 5.2 | 7.8 | 0.00 | 0.00 | 0.00 | 62 | 1008.7 |
| 20260830195507 | 89 | 182 | 0.9 | 1.7 | 0.00 | 0.00 | 0.00 | 61 | 1008.6 |
| 20260830195005 | 87 | 188 | 0.9 | 1.7 | 0.00 | 0.00 | 0.00 | 65 | 1008.6 |
| 20260830194504 | 87 | 181 | 1.7 | 2.6 | 0.00 | 0.00 | 0.00 | 64 | 1008.8 |
| 20260830194004 | 88 | 213 | 1.7 | 4.3 | 0.00 | 0.00 | 0.00 | 63 | 1008.7 |
| 20260830193503 | 87 | 89 | 1.7 | 1.7 | 0.00 | 0.00 | 0.00 | 65 | 1008.8 |
| 20260830192959 | 87 | 174 | 2.6 | 2.6 | 0.00 | 0.00 | 0.00 | 63 | 1008.8 |
| 20260830192455 | 87 | 55 | 3.5 | 6.1 | 0.00 | 0.00 | 0.00 | 64 | 1008.8 |
| 20260830191950 | 86 | 160 | 0.9 | 1.7 | 0.00 | 0.00 | 0.00 | 65 | 1008.9 |
| 20260830191449 | 86 | 159 | 0.9 | 1.7 | 0.00 | 0.00 | 0.00 | 66 | 1008.7 |
| 20260830190945 | 86 | 192 | 5.2 | 6.1 | 0.00 | 0.00 | 0.00 | 65 | 1009.0 |
| 20260830190440 | 86 | 98 | 2.6 | 6.1 | 0.00 | 0.00 | 0.00 | 67 | 1008.9 |
| 20260830185939 | 86 | 187 | 2.6 | 6.1 | 0.00 | 0.00 | 0.00 | 65 | 1009.4 |
| 20260830185434 | 85 | 330 | 3.5 | 7.8 | 0.00 | 0.00 | 0.00 | 68 | 1009.0 |
| 20260830184930 | 83 | 63 | 1.7 | 2.6 | 0.00 | 0.00 | 0.00 | 70 | 1008.8 |
| 20260830184429 | 82 | 334 | 2.6 | 2.6 | 0.00 | 0.00 | 0.00 | 71 | 1009.5 |
| 20260830183924 | 82 | 164 | 0.0 | 1.7 | 0.00 | 0.00 | 0.00 | 72 | 1009.7 |